Location: Canyam�s
(41.5996°N, 2.4450°E)
Time: 07:38:02
(UTC+00:00)

Cosmos 1908 - Pass Details

Date: 06 June 2020
Orbit: 512 x 530 km, 82.5° (Epoch: 08 July)

Event Time Altitude Azimuth Distance (km) Brightness Sun altitude
Rises 22:31:34 0° 356° (N) 2,635 8.1 -23.2°
Reaches altitude 10° 22:33:44 10° 1° (N) 1,745 6.8 -23.3°
Enters shadow 22:37:00 50° 48° (NE) 662 3.8 -23.5°
